Погода в Березниках

Россия / Владимирская область     55°52′18″N   40°06′10″E
темп.,
°C
ветер,
м/с
пор.,
м/с
влажн.,
%
обл.,
%
осадки,
мм/ч
давл.,
гПа
погр.,
м
10 апреля, сб
сб1000:00−2ю22930 0.0 102732
03:00−2ююв24930 0.0 102864
06:00−2ююв25920 0.0 102865
09:00+5ю35650 0.0 1028372
12:00+9ююз45465 0.0 10271773
15:00+9ююз34445 0.0 10261753
18:00+6ююз11715 0.0 102513
21:000ю22850 0.0 102713
11 апреля, вс
вс1100:000ю24840 0.0 102748
03:00−1ююз24840 0.0 102754
06:00−1ююз23860 0.0 102846
09:00+7юз24610 0.0 1029318
12:00+11юз23490 0.0 1030899
15:00+13зюз12441 0.0 10301147
18:00+11вюв22643 0.0 103123
21:00+6юв2274100 0.0 103214
12 апреля, пн
пн1200:00+5вюв2280100 0.0 103333
03:00+4в228191 0.0 103431
06:00+3всв2885100 0.0 1034164
09:00+8в41061100 0.0 1033434
12:00+9в41059100 0.0 1032522
15:00+11в4769100 0.0 1030615
18:00+11в4983100 0.0 1029501
21:00+8в389697 0.0 1029201
13 апреля, вт
вт1300:00+7в3109698 0.0 1028219
03:00+7вюв3995100 0.0 1027153
06:00+7юв3992100 0.0 1027171
09:00+13ююв4966100 0.0 1026376
12:00+18ю574170 0.0 10251106
15:00+20ю46316 0.0 10241920
18:00+16ююв254759 0.0 102490
21:00+12ююв356256 0.0 102577
14 апреля, ср
ср1400:00+10ююв257141 0.0 102579
03:00+9ююв22755 0.0 102437
06:00+8ююв267917 0.0 1024112
09:00+14ююв376083 0.0 1024325
12:00+18ююв4741100 0.0 1022956
15:00+19ююв4937100 0.0 10211568
18:00+17юв3846100 0.0 1020205
21:00+12юв31063100 0.0 1020170